Location: Campo Alegre
(10.4289°N, 66.6519°W)
Time: 23:06:26
(UTC+00:00)

SAR-Lupe-2 - Pass Details

Date: 29 May 2024
Orbit: 481 x 482 km, 98.1° (Epoch: 05 September)

Event Time Altitude Azimuth Distance (km) Brightness Sun altitude
Rises 23:07:08 0° 168° (SSE) 2,530 6.9 -5.9°
Reaches altitude 10° 23:09:12 10° 168° (SSE) 1,651 5.9 -6.4°
Maximum altitude 23:12:44 88° 258° (WSW) 484 3.6 -7.2°
Drops below altitude 10° 23:16:17 10° 348° (NNW) 1,650 6.8 -8.0°
Sets 23:18:20 0° 348° (NNW) 2,529 7.8 -8.4°
